Helicity
91 122 129 118 122 133 130 100 86 84 99 48 25 104 125 113 96 65 66 69 98 103 22 -45 266 259 446 537 405 232 156 157 171 157 167 170 184 162
127 176 165 132 118 112 97 89 88 90 101 72 95 62 58 62 68 69 66 93 81 68 50 -24 -24 102 213 308 563 347 289 204 119 153 155 166 175 164
179 164 130 111 104 90 83 82 79 76 98 83 95 72 70 58 56 48 29 37 62 87 76 77 6 17 47 174 196 376 222 84 169 90 87 121 139 135
131 123 111 104 92 91 102 98 97 100 116 99 92 106 75 65 45 52 67 60 74 94 107 98 87 10 44 63 105 189 305 224 86 69 16 27 78 120
110 108 98 98 99 102 104 108 113 105 119 117 105 106 90 72 49 44 37 54 69 133 155 151 157 148 62 24 69 91 172 244 189 147 102 37 46 103
107 103 108 114 132 125 112 106 109 111 111 110 100 90 84 76 74 49 55 46 67 80 109 116 161 157 162 149 63 51 47 80 128 173 127 95 40 1
105 115 131 133 97 109 134 117 107 96 91 82 77 80 93 92 75 51 38 37 44 49 82 96 109 141 173 198 196 185 125 73 64 94 104 126 94 36
122 122 140 120 126 120 98 79 92 108 86 79 70 68 72 101 90 66 41 31 17 21 29 88 136 130 126 140 170 194 195 185 143 109 82 71 56 57
124 139 141 154 118 111 82 65 74 66 82 76 51 53 59 89 90 80 52 43 56 69 56 54 78 82 101 99 103 124 140 150 148 135 109 90 81 66
125 128 129 100 90 75 81 78 70 56 67 78 69 51 53 61 84 79 65 46 47 41 65 36 47 80 105 117 91 83 83 100 107 100 88 89 78 70
93 109 77 74 55 30 68 87 77 52 34 19 7 14 28 34 47 63 40 37 44 47 86 75 52 75 98 98 107 91 64 58 74 73 78 80 77 75
107 88 51 58 40 42 55 49 43 32 19 -11 -31 -11 -3 6 12 -2 15 30 53 33 78 67 65 74 40 46 93 109 111 89 85 90 81 66 63 112
112 82 84 40 27 32 38 47 26 4 -43 -26 -12 -8 2 -3 -8 -8 3 27 38 49 97 86 72 89 66 104 131 140 153 134 124 124 100 77 59 70
95 80 64 28 34 44 41 9 11 13 -15 -24 -22 -23 -13 0 10 15 10 19 45 70 47 51 40 71 66 64 80 114 147 154 145 119 95 79 77 68
83 52 43 41 44 54 21 18 35 30 9 5 0 -11 -7 2 9 6 4 0 -7 -1 -3 -3 14 3 -3 -21 35 87 93 102 107 114 127 109 110 119
61 46 48 48 49 62 42 34 29 13 14 13 10 11 17 19 26 19 11 16 9 14 -7 0 18 29 15 3 24 13 46 79 92 106 118 132 125 97
64 39 28 22 10 -11 -22 10 10 -12 -7 18 14 29 42 54 47 46 26 25 22 31 31 14 3 24 27 30 15 21 17 20 55 78 75 90 85 68
66 52 6 6 2 -15 -24 -22 -21 -14 -13 4 14 17 41 63 57 52 45 35 31 38 37 29 16 -1 13 11 8 10 13 27 26 25 57 51 57 57
51 55 20 -6 -3 -12 -18 -17 -14 -13 -14 -12 1 13 32 63 71 53 57 50 46 41 27 17 11 4 8 -2 14 11 -17 -7 5 14 -13 34 31 54
60 49 49 -9 -20 -13 -14 -15 -13 -12 -11 -1 3 9 21 35 55 55 47 29 28 30 34 25 24 17 12 15 8 -2 -12 -2 -8 -4 -8 16 15 21
73 57 53 45 -20 -22 -19 -17 -14 -4 -11 -4 4 5 14 11 31 45 41 33 7 -5 1 20 29 23 10 34 33 1 -13 -1 -6 -15 -28 -36 -37 24
87 70 52 53 42 -20 -26 -23 -18 -12 -1 1 2 8 16 13 13 25 28 26 11 2 4 32 53 39 31 16 12 30 32 7 -1 5 6 -8 4 -9
99 91 68 61 56 46 0 -25 -23 -15 -10 -2 8 12 13 18 25 21 16 9 5 13 12 29 39 28 20 30 22 32 41 33 22 20 17 36 35 23
Wind_Speed
64 68 68 65 63 63 62 61 67 80 82 66 61 62 63 59 55 55 56 59 64 64 63 63 75 80 70 68 66 64 61 57 58 60 58 57 57 55
63 63 57 58 62 65 68 68 67 71 80 66 68 69 62 58 58 60 61 61 60 60 61 61 59 69 78 78 77 72 65 62 60 62 62 60 61 60
58 57 56 58 61 69 71 72 73 71 80 79 73 69 64 65 68 68 68 69 67 66 66 68 69 65 61 73 73 75 75 67 67 67 67 65 63 61
60 60 62 64 71 73 74 76 75 72 74 83 76 70 65 67 67 68 69 67 69 69 66 67 70 70 73 68 71 74 77 75 70 70 68 67 66 66
60 64 67 70 75 76 77 77 75 73 70 73 76 68 71 67 67 66 69 70 67 70 70 68 69 68 69 77 82 78 79 80 77 70 67 66 67 67
63 64 66 69 70 72 73 71 71 74 72 73 74 73 70 68 66 71 75 68 73 69 73 72 70 67 65 64 70 76 78 77 75 76 74 73 72 71
66 66 64 64 65 65 68 71 73 73 73 74 75 71 70 69 70 67 73 72 73 70 70 70 65 59 58 58 59 62 66 74 74 75 77 77 75 74
67 66 65 62 61 59 60 56 54 69 73 74 74 73 69 67 68 73 75 75 76 60 59 59 59 70 70 68 67 64 65 64 66 70 71 73 77 80
67 67 65 59 58 55 55 53 47 45 56 69 75 72 70 63 65 71 74 73 74 70 67 75 65 73 71 70 71 71 73 71 69 68 73 76 75 76
66 63 57 51 52 54 54 53 46 43 40 48 61 66 66 63 55 62 67 69 69 70 63 76 67 74 74 75 75 73 77 79 74 73 73 71 74 78
61 55 48 50 50 46 42 33 31 28 25 28 69 72 71 65 57 54 60 62 68 70 60 69 73 74 70 77 77 78 77 77 76 80 79 80 81 81
60 52 47 48 43 51 46 31 21 10 6 21 55 62 63 65 69 70 70 73 70 67 59 47 58 50 55 56 65 73 73 72 72 74 76 77 77 79
56 52 46 45 49 46 44 30 27 24 21 29 35 40 43 45 50 55 60 62 60 61 46 38 43 38 43 53 53 53 54 64 63 61 66 71 74 73
53 48 45 49 49 46 36 21 17 4 14 26 29 31 33 35 37 40 46 52 55 57 51 30 43 37 41 47 51 45 45 48 54 61 61 62 63 67
56 52 55 53 49 39 24 19 18 2 16 20 24 28 31 33 36 38 41 45 49 51 52 49 51 55 54 52 52 43 39 42 47 53 54 54 54 54
58 58 56 53 55 40 26 19 17 10 20 22 25 27 29 30 31 32 34 33 37 37 39 43 44 42 40 33 10 7 17 45 44 48 50 52 52 53
56 60 59 60 61 58 42 2 3 28 29 25 23 23 24 24 25 26 28 27 27 29 28 30 34 33 29 24 20 19 14 6 37 50 51 57 57 55
55 55 59 59 59 58 54 47 41 39 34 29 28 26 26 28 28 28 28 28 27 26 27 29 31 13 25 24 21 18 17 17 16 11 38 50 56 51
58 53 56 58 57 56 55 53 50 45 40 40 36 35 33 32 33 33 33 32 33 33 34 34 35 34 30 27 25 26 23 21 22 23 25 35 46 52
52 54 50 56 56 54 54 53 53 51 49 46 44 42 40 38 37 37 37 37 38 38 40 39 39 39 36 35 27 22 23 25 24 23 22 38 46 51
47 49 49 48 55 54 53 53 53 53 50 48 47 46 44 42 40 40 40 41 41 43 45 46 46 46 34 30 34 24 22 26 25 24 21 20 19 28
42 43 46 47 47 54 53 54 53 53 52 50 48 48 47 45 43 43 42 43 44 45 46 47 45 41 32 34 38 29 28 27 26 24 23 23 21 19
37 39 41 45 44 46 52 54 54 53 52 51 50 49 48 47 46 45 44 44 45 45 44 42 40 37 35 35 36 32 33 33 33 32 27 31 31 26
Wind_Direction
330 329 326 323 323 322 321 320 316 309 305 308 307 311 310 311 312 313 310 301 293 288 282 279 271 263 268 267 265 264 263 268 266 265 266 267 266 267
333 334 332 328 324 322 319 316 314 309 304 306 300 303 304 306 305 304 304 303 300 292 285 279 278 271 265 263 265 265 264 266 264 263 263 265 265 266
339 338 335 332 328 322 319 315 311 309 302 301 299 299 297 298 297 297 296 295 294 292 288 283 275 270 270 263 263 265 261 263 263 261 261 262 264 264
336 334 332 330 326 323 319 314 311 308 304 299 299 296 294 296 295 295 295 295 291 289 290 286 280 272 266 263 261 264 265 261 261 260 261 261 260 262
334 333 331 329 325 323 320 316 312 309 306 302 298 297 294 293 293 293 293 291 290 287 284 284 282 279 272 263 260 263 264 263 260 260 260 259 260 262
335 334 332 330 328 326 324 320 316 310 306 301 298 296 294 293 291 290 288 290 287 288 282 279 279 277 275 273 267 264 260 262 262 260 260 260 260 262
336 335 334 333 330 329 326 323 317 311 305 300 295 294 292 291 288 289 285 287 286 285 283 278 276 276 275 275 274 270 265 263 263 263 261 259 260 262
337 337 336 335 333 332 330 328 324 314 305 299 294 291 291 291 290 284 282 281 282 288 284 281 278 272 271 272 272 273 270 269 265 263 262 261 261 263
341 341 340 340 338 337 335 333 331 326 314 301 293 291 291 292 291 285 279 277 277 279 281 275 278 273 272 272 270 271 268 268 267 266 264 263 263 263
345 344 346 347 347 344 340 337 337 335 331 317 302 293 292 292 293 287 280 277 277 276 279 273 277 273 273 272 270 270 266 264 265 265 264 265 264 264
352 354 357 356 355 355 352 347 345 344 340 331 291 284 284 287 291 289 272 272 272 272 279 276 276 275 276 272 271 268 266 266 266 264 264 264 264 265
359 2 6 5 6 5 4 3 358 331 250 227 265 273 276 274 264 253 257 259 266 272 279 284 279 284 283 282 275 268 266 266 267 267 266 265 265 265
3 5 11 13 11 15 19 28 32 31 253 245 240 246 249 243 240 242 242 242 252 258 280 291 288 292 287 285 287 284 276 267 268 270 270 268 265 265
7 9 13 13 17 23 33 37 45 88 237 249 245 244 247 249 253 249 237 226 224 227 269 298 289 294 293 292 288 292 289 279 273 270 271 271 268 267
7 6 6 12 19 31 42 52 64 130 255 249 243 241 242 241 241 241 241 240 237 232 232 217 213 237 241 225 266 298 297 292 285 278 272 272 270 270
7 1 5 12 9 33 55 67 76 274 280 270 262 255 247 246 240 236 226 235 222 229 222 204 199 195 200 188 19 48 334 298 292 281 277 274 273 274
12 359 357 355 348 337 310 258 245 295 297 287 276 265 250 241 236 240 236 242 253 242 251 248 217 172 160 141 124 145 136 91 308 283 279 273 271 274
16 11 354 349 344 339 328 315 309 307 299 290 287 282 272 266 266 266 268 271 276 286 291 287 286 118 73 71 91 124 131 138 131 353 290 275 271 276
12 18 2 347 342 340 334 331 322 312 304 309 303 302 297 289 290 290 293 291 289 291 296 300 311 328 10 42 81 85 88 111 124 132 151 297 281 279
18 14 19 352 342 340 335 332 330 328 327 324 320 317 314 309 304 301 301 303 302 297 295 301 308 313 325 346 27 76 95 96 112 122 135 307 284 274
21 17 16 16 345 338 335 331 330 329 328 326 325 324 320 317 313 309 305 303 303 304 298 294 292 281 289 2 340 32 74 61 83 91 115 119 130 331
21 20 16 15 13 344 336 331 329 328 327 326 323 323 323 321 316 313 313 312 308 305 303 299 301 313 337 337 328 358 12 25 37 41 59 69 56 45
24 22 18 13 13 10 348 333 329 327 328 326 323 321 320 320 318 317 316 316 315 311 312 310 316 327 332 329 328 337 342 353 2 5 17 5 7 23